Dewpoint
36 37 38 39 37 37 35 35 35 34 32 31 31 29 28 27 27 27 26 24 25 24 24 26 25 25 25 25 27 26 26 25 25 24 23 23 24 25 27 26 26 26 26 24 23 26 22 21 20 22 21 20 19 18 18 18 19 19 20 23 18 16 15 17 16 16 13 12 17 14 12 12 19 18 15 16 13 15 16 16 19 21 21 20 19
31 32 34 36 35 34 33 31 33 32 31 30 30 28 27 27 26 26 24 23 24 23 23 24 25 25 24 23 23 24 25 26 24 23 23 23 24 24 26 26 26 25 26 24 23 23 22 21 20 20 21 21 20 21 19 24 23 21 20 18 18 16 14 18 18 14 9 7 6 5 13 11 17 20 15 11 11 8 12 18 20 20 19 18 17
27 28 30 33 34 33 32 30 30 32 31 29 30 28 26 26 25 25 24 23 23 23 23 22 22 23 22 20 20 19 20 24 23 23 23 23 23 24 25 25 25 25 26 25 23 23 22 21 20 20 21 22 21 20 21 20 21 20 18 16 14 15 18 20 15 12 7 16 12 9 7 7 14 9 9 12 11 6 6 10 11 8 9 15 17
24 25 26 28 31 32 31 29 28 29 30 29 29 28 26 26 25 24 24 23 22 23 25 22 21 20 20 19 17 17 16 20 20 20 21 21 21 23 24 24 24 24 25 25 24 23 22 21 20 20 20 22 21 19 19 19 20 19 17 18 15 11 12 11 20 16 11 10 7 7 9 6 8 10 2 8 10 7 5 8 6 3 3 8 10
23 23 23 25 28 30 30 30 28 27 28 27 27 28 26 25 25 25 24 23 22 24 24 22 22 21 21 21 20 19 20 18 16 16 18 21 21 21 22 23 23 24 24 24 25 23 22 22 21 20 19 21 21 19 19 18 18 18 17 17 15 13 11 7 9 17 11 12 11 6 7 8 8 7 3 5 8 5 6 5 12 1 4 8 6
23 22 23 24 25 27 29 29 27 26 26 26 26 27 26 25 25 25 25 23 23 22 23 22 22 20 20 19 17 17 17 17 14 14 16 17 19 19 22 23 23 23 23 24 24 24 22 22 21 20 19 20 22 20 19 18 18 17 17 16 15 13 13 5 4 13 17 21 13 7 9 11 6 5 4 5 6 8 9 7 2 2 2 5 4
22 22 22 22 24 25 27 27 26 26 25 26 25 25 25 25 24 24 24 24 23 22 22 22 21 19 19 18 18 17 16 17 16 15 16 16 19 18 21 23 23 22 23 23 24 24 22 22 21 20 20 19 22 18 18 17 17 17 18 16 15 17 11 9 6 5 3 9 15 12 14 15 9 3 2 1 1 5 2 0 -1 2 2 3 3
21 22 21 22 22 23 24 26 25 25 25 25 24 24 24 24 23 23 23 24 23 22 22 21 20 19 19 18 19 18 16 16 16 16 17 19 17 18 19 21 22 22 22 23 23 23 22 21 21 20 20 19 22 17 16 15 15 17 18 16 15 15 11 13 8 6 6 5 13 5 13 11 2 1 4 2 4 -1 -1 -1 1 -2 -3 2 2
19 21 21 21 22 22 23 24 24 25 24 24 23 22 23 23 23 22 22 23 23 22 22 20 23 19 19 19 18 19 17 18 20 22 19 22 17 17 17 18 21 22 22 22 22 23 24 21 20 20 19 18 24 19 17 15 13 14 14 12 12 11 9 11 9 7 5 6 1 -2 -3 -3 0 2 2 1 -0 -3 -4 -4 -4 -4 -7 -5 -4
19 20 21 21 21 22 22 23 23 23 24 24 23 22 22 22 22 21 21 22 22 21 22 21 20 21 19 18 18 18 20 20 20 20 19 21 17 17 17 17 18 20 21 21 22 22 23 22 20 19 19 18 23 18 17 15 12 11 10 9 9 7 8 10 9 6 4 3 1 -1 -4 -2 -3 -3 -2 -5 -4 -5 -3 -5 -5 -9 -10 -8 -4
20 20 20 21 21 21 23 23 23 23 23 22 23 21 21 21 21 21 20 20 21 21 22 21 20 20 19 18 18 18 19 19 19 19 18 18 17 17 17 17 17 18 18 19 20 20 21 22 19 18 18 21 22 17 16 15 11 9 7 6 5 5 5 8 15 7 5 4 -3 -1 -3 -2 -1 -2 -2 -3 -5 -7 -9 -8 -9 -7 -9 -10 -8
21 21 21 21 21 20 22 23 22 22 22 22 22 22 21 21 21 21 20 20 20 21 21 21 21 20 19 18 18 18 19 18 18 18 18 18 17 18 18 17 17 17 17 17 18 19 20 20 21 18 18 18 19 17 15 13 7 6 5 5 3 2 2 9 5 3 2 1 -3 -3 -3 -2 -1 -3 -2 -4 -6 -8 -9 -9 -10 -9 -9 -8 -7
22 22 22 22 22 22 22 22 23 23 22 22 21 21 21 21 20 20 20 20 20 20 20 20 20 20 19 18 18 19 19 18 18 17 18 18 18 18 17 17 17 16 16 16 16 17 18 19 19 17 17 17 16 12 10 7 3 4 5 5 4 1 2 5 3 2 1 0 -1 -2 -2 -4 -5 -5 -6 -7 -6 -6 -8 -9 -8 -7 -9 -9 -8
23 24 24 25 25 24 23 23 23 23 22 22 21 22 21 21 20 20 20 20 20 20 20 19 19 19 19 18 18 19 19 18 18 18 18 18 18 18 17 17 17 17 16 16 16 16 17 18 18 17 16 15 12 9 6 3 1 2 3 2 2 2 -0 1 2 0 -0 -1 -0 -1 -3 -3 -6 -8 -9 -8 -7 -6 -7 -7 -8 -5 -8 -9 -7
24 25 25 25 26 24 24 24 23 23 23 23 22 22 21 20 20 20 20 20 20 21 20 19 19 19 19 19 18 19 19 19 18 18 18 18 17 17 17 16 16 15 15 14 14 16 16 17 17 15 14 12 10 7 5 3 2 2 1 -0 -0 -1 -2 -0 -1 -1 -2 -2 -2 0 -2 -2 -3 -8 -7 -8 -7 -6 -4 -4 -6 -10 -5 -5 -7
22 24 25 25 25 25 24 24 24 23 23 23 22 22 21 20 20 20 20 20 21 21 20 20 19 19 19 19 19 19 20 19 19 19 17 17 15 16 14 14 14 12 11 12 13 14 15 14 14 12 10 10 8 7 5 4 3 3 2 -0 -2 -3 -3 -2 -2 -3 -3 -2 -3 -1 -0 -3 -3 -3 -5 -6 -7 -5 -5 -3 -3 -6 -8 -6 -5
20 23 25 24 24 24 25 24 24 24 23 23 22 22 21 20 20 20 20 20 21 21 21 20 20 20 20 19 19 19 18 17 17 16 13 12 13 11 10 10 8 8 10 11 11 11 12 12 11 9 9 9 7 7 6 4 3 4 2 1 -1 -3 -2 -3 -3 -3 -3 -3 -2 -2 1 0 -3 -3 -2 -5 -5 -4 -5 -4 -3 -4 -4 -6 -11
20 21 23 23 23 24 24 24 24 24 23 23 22 22 22 21 21 20 20 21 21 22 21 21 20 20 18 17 16 17 16 15 13 11 11 9 8 8 7 8 9 11 11 10 10 10 11 12 9 8 8 7 7 6 5 4 4 3 1 -0 -1 -2 -2 -2 -2 -3 -3 -3 -1 -2 -1 -1 -1 -3 -4 -2 -3 -1 -3 -3 -3 -4 -3 -4 -3
21 22 24 24 24 24 24 24 24 24 24 23 22 23 23 22 22 21 21 21 22 22 21 20 18 17 15 14 13 12 11 10 8 10 7 8 7 7 7 10 11 12 12 11 10 10 10 10 9 8 7 7 6 5 5 4 4 3 1 -0 -2 -3 -2 -2 -2 -2 -3 -2 -2 -2 -1 -1 -1 -1 -3 -2 -3 -1 -2 -2 -2 -1 -3 -3 -2
21 22 24 25 25 25 24 24 24 24 23 23 23 23 23 23 22 22 22 21 21 20 19 17 15 14 10 8 7 7 8 8 7 7 8 7 7 8 8 10 11 12 11 11 12 11 10 10 9 8 7 6 5 5 4 3 3 3 2 1 -1 -2 -2 -3 -3 -2 -2 -1 -2 -2 -1 -1 -1 -2 -2 -2 -2 -2 -1 -2 -2 -2 -3 -3 -2
18 21 23 24 25 25 24 24 24 23 23 23 23 23 22 21 21 20 20 19 18 17 15 14 11 9 7 5 4 8 5 6 6 5 6 7 6 8 9 10 10 11 11 11 11 11 10 9 8 8 6 5 4 4 3 3 3 2 2 1 -1 -2 -2 -3 -1 -2 -2 -2 -1 -1 -2 -1 -1 -0 -0 -0 -1 -1 -2 -1 -2 -2 -3 -3 -1
16 18 20 23 24 24 24 23 23 23 23 23 22 21 21 19 19 18 17 16 16 13 12 11 7 5 5 5 4 6 3 6 3 5 5 6 7 8 9 10 10 10 11 11 10 10 10 8 7 6 5 5 4 4 3 3 3 2 1 0 -1 -1 -1 -2 -1 -2 -2 -1 -1 -1 -1 -1 -2 0 0 0 -0 -1 -2 -2 -1 -1 0 -1 -1
18 18 19 22 24 24 24 24 23 23 23 22 21 20 20 18 17 16 15 14 13 10 8 7 5 4 4 4 4 4 4 5 4 4 5 6 7 8 10 10 10 9 9 10 9 9 8 7 7 6 6 4 4 4 4 3 3 2 2 1 0 -0 -0 -0 0 -0 -0 1 0 1 -1 -2 -3 -1 -0 -0 -0 -1 -0 -0 -1 -1 -0 -0 -0
12 17 22 23 24 24 23 24 24 23 22 21 20 19 18 16 15 14 13 11 8 6 4 4 4 2 2 2 2 2 3 3 3 4 5 7 10 10 10 10 9 9 9 9 8 7 7 6 6 6 5 4 4 5 5 4 4 3 2 2 1 0 0 1 1 1 1 1 1 0 -0 -1 -1 -1 -1 -1 -0 -0 0 -0 -2 -2 -1 -2 -2
11 14 17 21 23 23 23 24 23 23 22 20 19 17 15 14 13 12 11 9 6 4 2 2 2 1 2 1 2 3 4 3 3 5 6 9 10 10 10 9 9 9 8 8 7 7 6 6 6 6 5 5 5 5 5 4 4 3 3 2 2 1 1 2 2 1 4 1 1 1 1 0 -1 -2 -2 -1 -0 -2 -1 -0 -1 -1 -1 -1 -2
14 14 15 16 20 21 22 23 23 22 21 19 18 16 13 12 10 10 9 6 4 3 1 1 1 1 4 6 7 6 5 3 4 6 8 10 11 10 10 10 10 8 8 8 7 7 7 6 6 6 6 6 6 5 5 4 4 4 3 3 3 2 2 2 2 2 2 2 1 1 0 1 -0 -1 -2 -1 -1 -2 -2 -2 -2 -2 -1 -2 -1
18 18 18 16 15 16 18 20 22 21 20 18 16 14 12 10 9 7 7 5 4 2 4 1 2 2 8 4 4 3 5 4 7 9 10 11 11 11 10 9 9 8 8 8 8 7 8 7 7 7 7 7 7 5 4 4 4 3 3 3 3 2 1 1 1 1 1 1 1 0 -0 -0 -0 -1 -1 -2 -2 -3 -3 -3 -2 -2 -2 -3 -3
19 20 20 19 18 16 16 16 19 20 18 16 14 13 11 9 8 6 5 5 3 5 6 7 4 5 5 6 4 4 5 8 9 10 10 11 11 10 9 10 10 9 9 9 8 9 9 8 8 8 8 8 6 5 4 3 4 4 3 2 3 2 2 0 -0 0 0 0 -0 -1 -1 -1 -1 -1 -1 -1 -2 -3 -4 -4 -3 -4 -4 -4 -4
19 20 21 21 19 19 19 19 18 18 18 16 13 12 10 9 8 6 7 10 5 6 6 5 6 5 4 5 5 7 9 9 9 10 10 10 10 9 10 9 9 9 9 9 9 9 8 9 8 8 7 6 5 5 4 4 3 1 1 2 2 2 2 1 -0 -1 -1 -1 -2 -2 -2 -2 -1 2 4 3 2 2 -3 -4 -4 -4 -5 -5 -5
19 20 21 21 20 20 20 20 20 19 18 17 14 12 11 9 8 8 6 6 7 5 6 7 5 5 7 7 8 9 9 9 8 8 8 8 8 8 8 9 8 9 9 8 8 7 7 7 6 4 3 2 2 0 6 10 11 2 -2 0 0 1 1 1 0 -0 -2 -2 -2 -3 -2 4 4 6 5 6 6 5 4 0 -2 -4 -4 -4 -5
19 20 21 21 20 20 20 20 19 20 20 18 16 14 12 9 8 9 9 6 6 6 5 6 6 8 9 10 9 9 8 7 6 6 7 7 7 7 7 6 7 7 7 6 6 5 4 4 4 2 1 0 -0 -0 10 13 14 14 3 -1 -1 -1 -2 -1 -1 -1 -1 -1 -3 -5 -7 2 5 7 6 8 7 7 7 6 5 3 2 -3 -5
19 20 21 20 20 20 20 19 19 19 19 19 17 15 13 10 9 10 9 8 8 7 8 9 10 10 10 10 8 8 6 5 5 5 6 6 6 5 5 6 5 4 4 4 3 4 3 2 2 1 1 -1 -2 5 11 13 14 15 13 2 1 -0 -2 -2 -2 -2 -1 -1 -2 -3 -4 -4 -1 0 1 3 6 8 8 8 7 7 6 5 6
20 21 21 20 19 20 19 18 18 17 18 19 18 16 14 12 11 10 9 9 9 9 11 11 11 11 10 9 8 6 5 6 6 5 6 6 5 4 4 4 3 3 2 2 3 3 2 0 0 -1 -1 -2 -3 8 11 13 14 15 16 12 3 3 1 -0 -1 -1 -2 -1 -1 -1 -2 -2 -2 4 5 1 -0 1 7 8 8 8 8 7 10
21 21 20 19 20 20 19 18 18 18 18 18 19 18 16 15 13 9 8 10 11 11 11 11 11 10 9 9 7 6 6 6 5 5 5 5 4 4 4 3 3 3 2 2 2 1 1 -1 -1 -1 -2 -3 -3 4 10 12 13 15 15 14 8 6 6 4 2 1 -0 -1 -1 -1 -0 -1 -1 -0 1 1 0 -0 -1 -0 2 3 4 6 7
17 17 18 19 20 19 19 18 18 18 18 19 18 17 16 14 11 10 11 11 11 11 10 10 10 10 9 9 7 6 6 5 5 5 5 4 4 4 4 4 3 2 2 1 0 0 -0 -1 -2 -2 -3 -3 -3 6 9 10 11 12 13 13 10 10 9 8 7 6 5 4 3 3 2 2 2 1 1 1 -0 -0 -1 -1 -1 -1 -0 0 2
15 16 17 17 18 18 18 18 18 18 18 19 18 18 16 15 12 11 10 11 11 10 10 10 10 10 9 9 7 7 6 6 5 5 5 5 4 4 4 4 2 2 1 1 0 1 0 -1 -1 -3 -3 -3 -3 9 10 10 10 11 13 10 10 11 10 10 9 9 9 8 8 7 6 6 5 5 6 8 7 4 1 1 0 -0 -0 -0 0
14 15 15 17 18 18 18 18 18 19 19 18 18 18 16 14 11 11 11 10 11 11 11 11 10 10 9 9 8 7 7 6 6 5 5 4 4 4 4 3 2 2 1 0 0 -0 -0 -1 -2 -2 -3 -2 -2 5 9 10 11 13 12 10 10 10 9 9 9 9 9 9 9 9 8 8 7 6 8 13 14 10 7 4 3 3 3 2 2
14 15 17 17 16 17 18 19 19 18 18 18 19 19 16 14 12 12 12 10 10 10 11 11 11 11 10 10 9 8 8 7 6 5 5 5 5 5 4 3 2 1 0 0 0 -1 -1 -1 -1 -2 -2 -3 -2 1 8 10 12 14 13 11 10 10 9 9 8 8 8 7 8 9 9 7 6 6 10 13 14 11 8 8 7 6 4 4 4
13 16 16 15 16 19 19 18 17 17 17 18 19 18 15 13 13 12 11 11 11 11 11 11 11 12 11 10 9 9 8 7 6 6 6 5 5 4 3 3 1 1 1 0 0 -1 -1 -1 -1 -1 -0 -1 -2 -1 6 9 11 13 12 10 10 9 7 6 6 5 6 6 7 7 8 8 7 7 12 14 14 10 8 8 8 7 6 6 6
16 15 15 17 19 17 16 16 16 17 18 19 19 17 15 14 14 13 12 11 11 11 12 12 12 11 10 10 9 9 8 7 7 6 6 5 5 3 2 1 1 1 0 0 -1 -1 -1 -1 -1 -2 -2 -1 -2 -2 -1 8 10 12 14 10 9 8 7 6 6 5 4 4 4 3 5 7 12 13 14 14 14 15 10 8 8 7 6 5 6
14 13 19 16 15 16 16 16 17 18 18 18 18 16 15 14 14 13 12 12 11 12 12 11 11 10 9 9 9 8 8 7 7 6 6 4 3 3 2 1 0 0 -0 -1 -1 -2 -2 -2 -2 -2 -3 -3 -2 -2 -1 8 10 11 13 12 8 8 7 6 5 4 3 3 2 2 2 4 8 11 13 14 15 15 14 11 10 8 7 7 8
13 17 16 15 15 15 15 15 16 16 17 17 17 15 15 15 14 12 12 11 11 11 10 10 9 9 8 8 8 8 7 6 6 5 3 2 2 2 2 0 0 -1 -2 -2 -3 -3 -3 -3 -3 -4 -4 -4 -3 -1 -3 4 9 11 13 13 9 9 9 8 6 5 4 4 3 3 2 3 6 10 11 13 14 14 15 10 10 15 15 14 9
13 14 13 15 15 14 14 14 14 15 16 15 15 14 14 14 13 11 11 10 10 9 9 9 8 8 7 7 7 6 6 5 4 3 2 1 0 0 -0 -1 -1 -2 -2 -3 -4 -4 -4 -5 -5 -4 -4 -5 -4 -4 -1 -2 3 10 12 13 13 11 13 9 8 6 5 4 4 4 4 5 10 12 12 13 14 14 13 11 15 15 14 11 10
14 13 13 14 13 13 13 13 14 14 14 13 13 12 12 12 11 10 10 9 9 9 8 7 7 6 6 6 5 5 4 3 2 2 1 0 -1 -1 -1 -2 -2 -3 -4 -4 -4 -5 -6 -7 -7 -6 -6 -6 -5 -5 -3 -2 -2 7 10 11 12 13 13 10 9 8 8 7 6 6 6 11 11 12 13 13 14 12 10 14 15 14 11 10 9
13 13 13 13 12 12 12 12 13 12 12 11 12 11 11 11 10 9 9 8 8 7 7 6 6 5 5 4 4 3 2 2 1 1 -0 -0 -2 -2 -3 -3 -4 -4 -5 -5 -5 -6 -7 -7 -8 -8 -8 -7 -7 -7 -7 -5 -3 -2 7 9 11 12 10 9 8 8 8 7 8 11 11 12 12 13 13 13 12 8 9 10 6 6 7 5 4
13 13 12 12 12 11 11 11 11 11 10 10 10 11 10 10 9 9 9 8 7 6 6 5 5 4 4 3 2 1 1 1 0 -0 -0 -1 -2 -3 -3 -4 -5 -5 -5 -6 -6 -7 -8 -9 -9 -9 -9 -8 -8 -8 -8 -7 -5 -3 -3 4 9 6 5 5 5 4 4 6 9 9 9 7 5 3 1 -1 -2 -2 -0 1 1 1 -1 -2 -5
13 13 12 11 11 10 10 10 9 10 10 10 9 10 9 9 8 9 8 7 6 6 5 5 4 4 3 2 1 0 -0 -1 -2 -2 -2 -2 -3 -3 -4 -5 -5 -6 -6 -7 -7 -8 -9 -9 -9 -9 -9 -9 -8 -8 -8 -8 -7 -7 -6 -5 -4 -3 -1 -1 -2 -3 -1 -3 -3 -3 -3 -2 -2 -1 -1 -0 -0 0 -0 -0 -1 -1 -2 -3 -4
13 12 11 10 10 9 9 9 8 9 9 8 8 8 8 8 7 8 7 6 5 5 4 4 3 2 1 1 0 -2 -2 -2 -3 -3 -3 -4 -4 -4 -5 -5 -6 -6 -7 -8 -8 -8 -9 -9 -9 -9 -9 -9 -9 -9 -8 -8 -8 -8 -8 -7 -7 -7 -8 -8 -7 -7 -7 -7 -6 -3 -3 -5 -5 -5 -4 -5 -4 -4 -3 -3 -3 -3 -4 -3 -2
13 11 10 10 9 9 8 8 7 8 8 8 8 8 7 7 7 6 6 5 5 3 3 2 2 1 0 -0 -0 -2 -2 -3 -3 -4 -3 -3 -4 -5 -5 -5 -5 -5 -6 -7 -8 -8 -8 -8 -8 -9 -9 -10 -9 -9 -8 -5 -6 -4 -6 -8 -8 -8 -8 -7 -5 -3 -5 -7 -9 -8 -9 -8 -8 -8 -7 -7 -7 -6 -6 -6 -6 -6 -5 -5 -6
12 10 10 10 9 7 6 6 7 7 7 7 7 8 6 7 5 5 5 5 3 2 1 1 1 0 -0 -1 -2 -2 -3 -3 -3 -4 -4 -4 -3 -1 -3 -5 -5 -3 -2 -0 1 -7 -7 -7 -8 -7 -7 -9 -10 -9 2 8 9 8 2 -0 -1 -1 -1 -4 -2 -1 -1 -4 -6 -7 -7 -7 -7 -7 -8 -8 -7 -7 -7 -7 -7 -4 -5 -6 -6
10 9 9 9 7 6 5 5 5 6 5 5 6 6 6 5 6 4 4 4 3 1 1 1 -0 -1 -1 -2 -2 -3 -3 -4 -3 -3 -4 -4 -5 -3 6 6 2 -1 -1 5 9 10 10 3 -5 -8 -5 -3 -2 2 9 9 12 12 9 8 8 7 4 4 3 1 -0 -1 -2 -3 -4 -4 -4 -5 -6 -6 -6 -6 -6 -6 -6 -6 -6 -6 -5